| time (UTC) | temp F | wind direction | speed MPH | gust MPH | rain 1hr in | rain 24hr in | rain mn in | humidity % | barometer mb |
| 20260507221552 | 55 | 299 | 2.0 | 3.0 | 0.00 | 0.00 | 0.00 | 85 | 1014.3 |
| 20260507220050 | 55 | 299 | 0.0 | 2.0 | 0.00 | 0.00 | 0.00 | 85 | 1014.2 |
| 20260507214552 | 55 | 299 | 2.0 | 4.0 | 0.00 | 0.00 | 0.00 | 83 | 1014.2 |
| 20260507213048 | 56 | 337 | 2.0 | 6.0 | 0.00 | 0.00 | 0.00 | 84 | 1014.1 |
| 20260507211601 | 55 | 312 | 2.0 | 4.0 | 0.00 | 0.00 | 0.00 | 84 | 1013.8 |
| 20260507210046 | 55 | 312 | 2.0 | 4.0 | 0.00 | 0.00 | 0.00 | 84 | 1013.8 |
| 20260507204547 | 56 | 312 | 1.0 | 4.0 | 0.00 | 0.00 | 0.00 | 84 | 1013.8 |
| 20260507203045 | 56 | 360 | 3.0 | 5.0 | 0.00 | 0.00 | 0.00 | 83 | 1013.7 |
| 20260507201547 | 57 | 315 | 1.0 | 3.0 | 0.00 | 0.00 | 0.00 | 82 | 1013.4 |
| 20260507200049 | 57 | 315 | 0.0 | 3.0 | 0.00 | 0.00 | 0.00 | 81 | 1013.2 |
| 20260507194543 | 58 | 319 | 1.0 | 4.0 | 0.00 | 0.00 | 0.00 | 80 | 1013.1 |
| 20260507193043 | 59 | 355 | 1.0 | 4.0 | 0.00 | 0.00 | 0.00 | 79 | 1013.0 |
| 20260507191549 | 60 | 355 | 0.0 | 3.0 | 0.00 | 0.00 | 0.00 | 78 | 1013.0 |
| 20260507190041 | 61 | 355 | 1.0 | 3.0 | 0.00 | 0.00 | 0.00 | 76 | 1012.6 |
| 20260507184540 | 63 | 355 | 1.0 | 4.0 | 0.00 | 0.00 | 0.00 | 73 | 1012.6 |
| 20260507183040 | 64 | 160 | 0.0 | 2.0 | 0.00 | 0.00 | 0.00 | 66 | 1012.6 |
| 20260507181539 | 64 | 160 | 0.0 | 3.0 | 0.00 | 0.00 | 0.00 | 68 | 1012.6 |
| 20260507180044 | 65 | 142 | 3.0 | 7.0 | 0.00 | 0.00 | 0.00 | 67 | 1012.4 |
| 20260507174539 | 65 | 157 | 2.0 | 8.0 | 0.00 | 0.00 | 0.00 | 66 | 1012.5 |
| 20260507173037 | 66 | 192 | 3.0 | 8.0 | 0.00 | 0.00 | 0.00 | 58 | 1012.3 |
| 20260507171537 | 67 | 180 | 2.0 | 8.0 | 0.00 | 0.00 | 0.00 | 62 | 1012.2 |
| 20260507170036 | 68 | 190 | 3.0 | 10.0 | 0.00 | 0.00 | 0.00 | 65 | 1012.3 |
| 20260507164535 | 68 | 197 | 2.0 | 9.0 | 0.00 | 0.00 | 0.00 | 62 | 1012.3 |
| 20260507163034 | 68 | 209 | 3.0 | 9.0 | 0.00 | 0.00 | 0.00 | 58 | 1012.3 |
| 20260507161532 | 68 | 171 | 4.0 | 8.0 | 0.00 | 0.00 | 0.00 | 62 | 1012.4 |
| 20260507154529 | 67 | 185 | 6.0 | 12.0 | 0.00 | 0.00 | 0.00 | 67 | 1012.4 |
| 20260507153032 | 67 | 155 | 6.0 | 12.0 | 0.00 | 0.00 | 0.00 | 65 | 1012.6 |
| 20260507151527 | 67 | 135 | 6.0 | 10.0 | 0.00 | 0.00 | 0.00 | 60 | 1012.7 |
| 20260507150025 | 67 | 169 | 5.0 | 11.0 | 0.00 | 0.00 | 0.00 | 58 | 1012.8 |
| 20260507144525 | 67 | 191 | 6.0 | 11.0 | 0.00 | 0.00 | 0.00 | 62 | 1012.9 |
| 20260507143026 | 66 | 182 | 5.0 | 16.0 | 0.00 | 0.00 | 0.00 | 63 | 1013.1 |
| 20260507141523 | 67 | 177 | 7.0 | 13.0 | 0.00 | 0.00 | 0.00 | 61 | 1013.2 |
| 20260507140027 | 66 | 148 | 6.0 | 16.0 | 0.00 | 0.00 | 0.00 | 62 | 1013.3 |
| 20260507134526 | 66 | 158 | 7.0 | 14.0 | 0.00 | 0.00 | 0.00 | 59 | 1013.2 |
| 20260507133023 | 67 | 182 | 8.0 | 14.0 | 0.00 | 0.00 | 0.00 | 62 | 1013.5 |
| 20260507131532 | 67 | 181 | 8.0 | 13.0 | 0.00 | 0.00 | 0.00 | 59 | 1013.5 |
| 20260507130020 | 67 | 163 | 7.0 | 14.0 | 0.00 | 0.00 | 0.00 | 60 | 1013.4 |
| 20260507124519 | 68 | 195 | 7.0 | 14.0 | 0.00 | 0.00 | 0.00 | 57 | 1013.3 |
| 20260507123023 | 67 | 161 | 6.0 | 13.0 | 0.00 | 0.00 | 0.00 | 59 | 1013.4 |
| 20260507121517 | 67 | 198 | 6.0 | 12.0 | 0.00 | 0.00 | 0.00 | 61 | 1013.4 |
| 20260507120014 | 67 | 167 | 6.0 | 11.0 | 0.00 | 0.00 | 0.00 | 58 | 1013.5 |
| 20260507114513 | 66 | 165 | 8.0 | 16.0 | 0.00 | 0.00 | 0.00 | 63 | 1013.5 |
| 20260507113012 | 66 | 159 | 7.0 | 12.0 | 0.00 | 0.00 | 0.00 | 62 | 1013.5 |
| 20260507111511 | 66 | 191 | 7.0 | 16.0 | 0.00 | 0.00 | 0.00 | 64 | 1013.3 |
| 20260507110013 | 66 | 191 | 8.0 | 16.0 | 0.00 | 0.00 | 0.00 | 64 | 1013.2 |
| 20260507104508 | 66 | 160 | 5.0 | 15.0 | 0.00 | 0.00 | 0.00 | 63 | 1013.1 |
| 20260507103008 | 66 | 169 | 7.0 | 11.0 | 0.00 | 0.00 | 0.00 | 64 | 1013.5 |
| 20260507101508 | 66 | 143 | 6.0 | 14.0 | 0.00 | 0.00 | 0.00 | 63 | 1013.6 |
| 20260507094603 | 65 | 222 | 6.0 | 15.0 | 0.00 | 0.00 | 0.00 | 65 | 1013.8 |
| 20260507093056 | 65 | 140 | 5.0 | 11.0 | 0.00 | 0.00 | 0.00 | 67 | 1013.8 |
| 20260507091602 | 64 | 157 | 6.0 | 11.0 | 0.00 | 0.00 | 0.00 | 69 | 1013.8 |
| 20260507090109 | 64 | 186 | 4.0 | 10.0 | 0.00 | 0.00 | 0.00 | 71 | 1013.6 |
| 20260507084545 | 64 | 169 | 4.0 | 10.0 | 0.00 | 0.00 | 0.00 | 70 | 1013.5 |
| 20260507083042 | 64 | 150 | 3.0 | 6.0 | 0.00 | 0.00 | 0.00 | 67 | 1013.4 |
| 20260507081550 | 64 | 149 | 2.0 | 5.0 | 0.00 | 0.00 | 0.00 | 66 | 1013.4 |
| 20260507080032 | 63 | 141 | 2.0 | 5.0 | 0.00 | 0.00 | 0.00 | 68 | 1013.5 |
| 20260507074531 | 62 | 160 | 3.0 | 6.0 | 0.00 | 0.00 | 0.00 | 68 | 1013.5 |
| 20260507073024 | 61 | 173 | 2.0 | 5.0 | 0.00 | 0.00 | 0.00 | 70 | 1013.6 |
| 20260507071520 | 61 | 131 | 2.0 | 6.0 | 0.00 | 0.00 | 0.00 | 73 | 1013.5 |
| 20260507070015 | 61 | 204 | 3.0 | 6.0 | 0.00 | 0.00 | 0.00 | 74 | 1013.5 |
| 20260507064513 | 59 | 160 | 1.0 | 5.0 | 0.00 | 0.00 | 0.00 | 77 | 1013.4 |
| 20260507063006 | 58 | 301 | 0.0 | 0.0 | 0.00 | 0.00 | 0.00 | 81 | 1013.3 |
| 20260507061506 | 56 | 301 | 0.0 | 0.0 | 0.00 | 0.00 | 0.00 | 85 | 1013.3 |
| 20260507054557 | 53 | 302 | 0.0 | 2.0 | 0.00 | 0.00 | 0.00 | 89 | 1013.3 |
| 20260507053049 | 51 | 302 | 0.0 | 2.0 | 0.00 | 0.00 | 0.00 | 91 | 1013.1 |
| 20260507051545 | 50 | 302 | 0.0 | 3.0 | 0.00 | 0.00 | 0.00 | 91 | 1012.8 |
| 20260507050040 | 50 | 302 | 2.0 | 4.0 | 0.00 | 0.00 | 0.00 | 91 | 1012.7 |
| 20260507044559 | 50 | 290 | 1.0 | 4.0 | 0.00 | 0.01 | 0.00 | 92 | 1012.5 |
| 20260507043052 | 49 | 327 | 1.0 | 5.0 | 0.00 | 0.01 | 0.00 | 92 | 1012.4 |
| 20260507041550 | 49 | 300 | 0.0 | 0.0 | 0.00 | 0.01 | 0.00 | 91 | 1012.4 |
| 20260507040050 | 49 | 300 | 0.0 | 4.0 | 0.00 | 0.01 | 0.00 | 91 | 1012.5 |
| 20260507034548 | 49 | 310 | 0.0 | 0.0 | 0.00 | 0.01 | 0.00 | 90 | 1012.5 |
| 20260507033044 | 50 | 310 | 0.0 | 0.0 | 0.00 | 0.01 | 0.00 | 90 | 1012.5 |
| 20260507031543 | 50 | 310 | 0.0 | 4.0 | 0.00 | 0.01 | 0.00 | 91 | 1012.7 |
| 20260507030042 | 50 | 300 | 2.0 | 4.0 | 0.00 | 0.01 | 0.00 | 91 | 1012.7 |
| 20260507024539 | 50 | 355 | 0.0 | 2.0 | 0.00 | 0.01 | 0.00 | 91 | 1012.7 |
| 20260507023038 | 50 | 355 | 1.0 | 3.0 | 0.00 | 0.01 | 0.00 | 91 | 1012.7 |
| 20260507021539 | 50 | 10 | 1.0 | 3.0 | 0.00 | 0.01 | 0.00 | 91 | 1012.7 |
| 20260507020037 | 50 | 10 | 1.0 | 3.0 | 0.00 | 0.01 | 0.00 | 91 | 1012.7 |
| 20260507014550 | 50 | 10 | 0.0 | 2.0 | 0.00 | 0.21 | 0.00 | 91 | 1012.7 |
| 20260507013037 | 50 | 10 | 0.0 | 2.0 | 0.00 | 0.21 | 0.00 | 91 | 1012.7 |
| 20260507011535 | 50 | 10 | 1.0 | 3.0 | 0.00 | 0.21 | 0.00 | 91 | 1012.7 |
| 20260507010032 | 50 | 10 | 0.0 | 2.0 | 0.00 | 0.21 | 0.00 | 91 | 1012.9 |
| 20260507004531 | 50 | 10 | 0.0 | 2.0 | 0.00 | 0.50 | 0.00 | 90 | 1013.0 |
| 20260507003029 | 50 | 10 | 0.0 | 0.0 | 0.00 | 0.50 | 0.00 | 90 | 1013.0 |
| 20260507001528 | 50 | 10 | 2.0 | 4.0 | 0.00 | 0.50 | 0.00 | 90 | 1013.0 |
| 20260507000028 | 50 | 5 | 1.0 | 3.0 | 0.00 | 0.50 | 0.00 | 90 | 1013.1 |
| 20260506234524 | 51 | 5 | 1.0 | 4.0 | 0.00 | 0.50 | 0.00 | 89 | 1013.2 |
| 20260506233023 | 51 | 333 | 0.0 | 3.0 | 0.00 | 0.50 | 0.00 | 89 | 1013.2 |
| 20260506231521 | 51 | 31 | 1.0 | 2.0 | 0.00 | 0.50 | 0.00 | 88 | 1013.2 |
| 20260506230020 | 52 | 31 | 0.0 | 4.0 | 0.00 | 0.50 | 0.00 | 88 | 1013.3 |
| 20260506224519 | 52 | 31 | 0.0 | 2.0 | 0.00 | 0.50 | 0.00 | 88 | 1013.3 |
| 20260506223017 | 52 | 31 | 0.0 | 4.0 | 0.00 | 0.50 | 0.00 | 88 | 1013.3 |